Time,TemperatureF,DewpointF,PressureIn,WindDirection,WindDirectionDegrees,WindSpeedMPH,WindSpeedGustMPH,Humidity,HourlyPrecipIn,Conditions,Clouds,dailyrainin,SoftwareType,DateUTC
2013-03-02 00:00:00,26.9,15.2,30.02,NNW,338,0.0,0.0,61,0.00,,,0.00,WUHU216HW,2013-03-02 05:00:00,
2013-03-02 00:01:00,26.9,15.2,30.02,NNW,338,0.0,0.0,61,0.00,,,0.00,WUHU216HW,2013-03-02 05:01:00,
2013-03-02 00:11:00,26.9,15.2,30.02,NNW,338,0.0,0.0,61,0.00,,,0.00,WUHU216HW,2013-03-02 05:11:00,
2013-03-02 00:16:00,26.7,15.0,30.02,NNE,23,0.0,0.0,61,0.00,,,0.00,WUHU216HW,2013-03-02 05:16:00,
2013-03-02 00:21:00,26.7,15.2,30.02,North,0,0.0,1.3,61,0.00,,,0.00,WUHU216HW,2013-03-02 05:21:00,
2013-03-02 00:26:00,26.7,15.0,30.02,NNE,23,0.0,1.3,61,0.00,,,0.00,WUHU216HW,2013-03-02 05:26:00,
2013-03-02 00:31:00,26.7,15.0,30.02,NNW,338,0.0,0.0,61,0.00,,,0.00,WUHU216HW,2013-03-02 05:31:00,
2013-03-02 00:36:00,26.7,15.0,30.02,WNW,293,0.0,1.5,61,0.00,,,0.00,WUHU216HW,2013-03-02 05:36:00,
2013-03-02 00:41:00,26.7,15.0,30.02,NNE,23,0.0,1.5,61,0.00,,,0.00,WUHU216HW,2013-03-02 05:41:00,
2013-03-02 00:46:00,26.7,15.0,30.02,North,0,0.0,0.0,61,0.00,,,0.00,WUHU216HW,2013-03-02 05:46:00,
2013-03-02 00:51:00,26.7,15.0,30.02,NNW,338,0.0,0.0,61,0.00,,,0.00,WUHU216HW,2013-03-02 05:51:00,
2013-03-02 00:56:00,26.7,15.4,30.02,NNW,338,0.0,0.0,62,0.00,,,0.00,WUHU216HW,2013-03-02 05:56:00,
2013-03-02 01:01:00,26.7,15.4,30.02,North,0,3.3,3.3,62,0.00,,,0.00,WUHU216HW,2013-03-02 06:01:00,
2013-03-02 01:10:00,26.7,15.4,30.02,NNW,338,0.0,3.3,62,0.00,,,0.00,WUHU216HW,2013-03-02 06:10:00,
2013-03-02 01:15:00,26.4,15.0,30.02,North,0,0.0,0.0,62,0.00,,,0.00,WUHU216HW,2013-03-02 06:15:00,
2013-03-02 01:20:00,26.4,15.0,30.02,North,0,0.0,0.0,62,0.00,,,0.00,WUHU216HW,2013-03-02 06:20:00,
2013-03-02 01:25:00,26.4,15.0,30.02,North,0,0.0,0.0,62,0.00,,,0.00,WUHU216HW,2013-03-02 06:25:00,
2013-03-02 01:30:00,26.4,15.0,30.02,NW,315,0.0,0.0,62,0.00,,,0.00,WUHU216HW,2013-03-02 06:30:00,
2013-03-02 01:35:00,26.4,15.0,30.02,NNW,338,0.0,0.0,62,0.00,,,0.00,WUHU216HW,2013-03-02 06:35:00,
2013-03-02 01:40:00,26.2,14.9,30.02,NNE,23,0.0,0.0,62,0.00,,,0.00,WUHU216HW,2013-03-02 06:40:00,
2013-03-02 01:45:00,26.2,14.9,30.02,North,0,0.0,0.0,62,0.00,,,0.00,WUHU216HW,2013-03-02 06:45:00,
2013-03-02 01:50:00,26.2,15.2,30.02,NW,315,0.0,0.0,63,0.00,,,0.00,WUHU216HW,2013-03-02 06:50:00,
2013-03-02 01:55:00,26.2,15.2,30.02,NNE,23,0.0,0.0,63,0.00,,,0.00,WUHU216HW,2013-03-02 06:55:00,
2013-03-02 02:00:00,26.0,15.1,30.02,North,0,0.0,0.0,63,0.00,,,0.00,WUHU216HW,2013-03-02 07:00:00,
2013-03-02 02:06:00,26.2,15.4,30.02,North,0,0.0,0.0,63,0.00,,,0.00,WUHU216HW,2013-03-02 07:06:00,
2013-03-02 02:11:00,26.0,15.1,30.02,NNE,23,0.0,0.0,63,0.00,,,0.00,WUHU216HW,2013-03-02 07:11:00,
2013-03-02 02:16:00,26.0,15.1,30.02,NW,315,0.0,0.0,63,0.00,,,0.00,WUHU216HW,2013-03-02 07:16:00,
2013-03-02 02:21:00,26.0,15.1,30.02,North,0,0.0,0.0,63,0.00,,,0.00,WUHU216HW,2013-03-02 07:21:00,
2013-03-02 02:26:00,26.0,15.1,30.02,WNW,293,0.0,0.0,63,0.00,,,0.00,WUHU216HW,2013-03-02 07:26:00,
2013-03-02 02:31:00,26.0,15.1,30.02,NW,315,0.0,0.0,63,0.00,,,0.00,WUHU216HW,2013-03-02 07:31:00,
2013-03-02 02:36:00,26.0,15.1,30.02,WNW,293,0.0,0.0,63,0.00,,,0.00,WUHU216HW,2013-03-02 07:36:00,
2013-03-02 02:41:00,25.7,14.7,30.02,NW,315,0.0,0.0,63,0.00,,,0.00,WUHU216HW,2013-03-02 07:41:00,
2013-03-02 02:46:00,25.7,14.7,30.01,WNW,293,0.0,0.0,63,0.00,,,0.00,WUHU216HW,2013-03-02 07:46:00,
2013-03-02 02:51:00,25.7,14.7,30.01,NNW,338,0.0,0.0,63,0.00,,,0.00,WUHU216HW,2013-03-02 07:51:00,
2013-03-02 02:56:00,25.7,14.7,30.01,NW,315,0.0,0.0,63,0.00,,,0.00,WUHU216HW,2013-03-02 07:56:00,
2013-03-02 03:01:00,25.7,14.9,30.01,NNW,338,0.0,0.0,63,0.00,,,0.00,WUHU216HW,2013-03-02 08:01:00,
2013-03-02 03:06:00,25.7,14.7,30.00,NNW,338,0.0,0.0,63,0.00,,,0.00,WUHU216HW,2013-03-02 08:06:00,
2013-03-02 03:11:00,25.7,14.7,30.01,NNW,338,0.0,0.0,63,0.00,,,0.00,WUHU216HW,2013-03-02 08:11:00,
2013-03-02 03:16:00,25.7,14.7,30.00,NW,315,0.0,0.0,63,0.00,,,0.00,WUHU216HW,2013-03-02 08:16:00,
2013-03-02 03:21:00,25.7,14.7,30.00,NNW,338,0.0,0.0,63,0.00,,,0.00,WUHU216HW,2013-03-02 08:21:00,
2013-03-02 03:26:00,25.7,14.6,30.00,NW,315,0.0,0.0,63,0.00,,,0.00,WUHU216HW,2013-03-02 08:26:00,
2013-03-02 03:31:00,25.5,14.6,30.00,West,270,0.0,0.0,63,0.00,,,0.00,WUHU216HW,2013-03-02 08:31:00,
2013-03-02 03:36:00,25.5,14.6,30.00,NW,315,0.0,0.0,63,0.00,,,0.00,WUHU216HW,2013-03-02 08:36:00,
2013-03-02 03:41:00,25.5,14.6,30.00,NNW,338,0.0,0.0,63,0.00,,,0.00,WUHU216HW,2013-03-02 08:41:00,
2013-03-02 03:46:00,25.5,14.6,29.99,NNW,338,0.0,0.0,63,0.00,,,0.00,WUHU216HW,2013-03-02 08:46:00,
2013-03-02 03:51:00,25.5,14.6,29.99,WNW,293,0.0,0.0,63,0.00,,,0.00,WUHU216HW,2013-03-02 08:51:00,
2013-03-02 03:56:00,25.3,14.7,29.99,West,270,0.0,0.0,64,0.00,,,0.00,WUHU216HW,2013-03-02 08:56:00,
2013-03-02 04:01:00,25.3,14.7,29.99,NW,315,0.0,0.0,64,0.00,,,0.00,WUHU216HW,2013-03-02 09:01:00,
2013-03-02 04:06:00,25.3,14.6,29.99,North,0,0.0,0.0,64,0.00,,,0.00,WUHU216HW,2013-03-02 09:06:00,
2013-03-02 04:11:00,25.3,15.1,29.99,West,270,0.0,0.0,65,0.00,,,0.00,WUHU216HW,2013-03-02 09:11:00,
2013-03-02 04:16:00,25.1,15.1,29.99,WNW,293,0.0,0.0,65,0.00,,,0.00,WUHU216HW,2013-03-02 09:16:00,
2013-03-02 04:21:00,25.3,15.1,29.99,WSW,248,0.0,0.0,65,0.00,,,0.00,WUHU216HW,2013-03-02 09:21:00,
2013-03-02 04:26:00,25.1,14.9,29.99,WNW,293,0.0,0.0,65,0.00,,,0.00,WUHU216HW,2013-03-02 09:26:00,
2013-03-02 04:31:00,25.1,14.9,29.99,WNW,293,0.0,0.0,65,0.00,,,0.00,WUHU216HW,2013-03-02 09:31:00,
2013-03-02 04:36:00,25.1,14.9,29.99,NW,315,0.0,0.0,65,0.00,,,0.00,WUHU216HW,2013-03-02 09:36:00,
2013-03-02 04:41:00,24.9,15.1,29.99,NNW,338,0.0,0.0,66,0.00,,,0.00,WUHU216HW,2013-03-02 09:41:00,
2013-03-02 04:46:00,24.9,15.1,29.99,NW,315,0.0,0.0,66,0.00,,,0.00,WUHU216HW,2013-03-02 09:46:00,
2013-03-02 04:51:00,24.9,15.1,29.99,WNW,293,0.0,0.0,66,0.00,,,0.00,WUHU216HW,2013-03-02 09:51:00,
2013-03-02 04:56:00,24.9,15.1,29.99,WNW,293,0.0,0.0,66,0.00,,,0.00,WUHU216HW,2013-03-02 09:56:00,
2013-03-02 05:01:00,24.9,15.1,29.99,West,270,0.0,0.0,66,0.00,,,0.00,WUHU216HW,2013-03-02 10:01:00,
2013-03-02 05:06:00,24.9,15.1,29.99,West,270,0.0,0.0,66,0.00,,,0.00,WUHU216HW,2013-03-02 10:06:00,
2013-03-02 05:11:00,24.9,15.4,29.99,WNW,293,0.0,0.0,67,0.00,,,0.00,WUHU216HW,2013-03-02 10:11:00,
2013-03-02 05:16:00,24.9,15.4,30.00,WNW,293,0.0,0.0,67,0.00,,,0.00,WUHU216HW,2013-03-02 10:16:00,
2013-03-02 05:21:00,24.9,15.4,29.99,WNW,293,0.0,0.0,67,0.00,,,0.00,WUHU216HW,2013-03-02 10:21:00,
2013-03-02 05:26:00,24.9,15.4,30.00,West,270,0.0,0.0,67,0.00,,,0.00,WUHU216HW,2013-03-02 10:26:00,
2013-03-02 05:31:00,24.9,15.4,30.00,NW,315,0.0,0.0,67,0.00,,,0.00,WUHU216HW,2013-03-02 10:31:00,
2013-03-02 05:36:00,24.9,15.4,29.99,West,270,0.0,0.0,67,0.00,,,0.00,WUHU216HW,2013-03-02 10:36:00,
2013-03-02 05:42:00,24.6,15.1,30.00,WNW,293,0.0,0.0,67,0.00,,,0.00,WUHU216HW,2013-03-02 10:42:00,
2013-03-02 05:47:00,24.8,15.6,30.00,WNW,293,0.0,0.0,68,0.00,,,0.00,WUHU216HW,2013-03-02 10:47:00,
2013-03-02 05:52:00,24.6,15.4,30.00,WNW,293,0.0,0.0,68,0.00,,,0.00,WUHU216HW,2013-03-02 10:52:00,
2013-03-02 05:57:00,24.6,15.4,30.00,West,270,0.0,0.0,68,0.00,,,0.00,WUHU216HW,2013-03-02 10:57:00,
2013-03-02 06:02:00,24.6,15.4,30.00,West,270,0.0,0.0,68,0.00,,,0.00,WUHU216HW,2013-03-02 11:02:00,
2013-03-02 06:07:00,24.6,15.3,30.00,WSW,248,0.0,0.0,68,0.00,,,0.00,WUHU216HW,2013-03-02 11:07:00,
2013-03-02 06:12:00,24.4,15.3,30.00,WNW,293,0.0,0.0,68,0.00,,,0.00,WUHU216HW,2013-03-02 11:12:00,
2013-03-02 06:17:00,24.4,15.6,29.99,WNW,293,0.0,0.0,69,0.00,,,0.00,WUHU216HW,2013-03-02 11:17:00,
2013-03-02 06:22:00,24.4,15.6,30.00,WNW,293,0.0,0.0,69,0.00,,,0.00,WUHU216HW,2013-03-02 11:22:00,
2013-03-02 06:27:00,24.4,15.6,30.00,WSW,248,0.0,0.0,69,0.00,,,0.00,WUHU216HW,2013-03-02 11:27:00,
2013-03-02 06:32:00,24.2,15.6,30.00,WNW,293,0.0,0.0,69,0.00,,,0.00,WUHU216HW,2013-03-02 11:32:00,
2013-03-02 06:37:00,24.4,15.6,30.00,WSW,248,0.0,0.0,69,0.00,,,0.00,WUHU216HW,2013-03-02 11:37:00,
2013-03-02 06:42:00,24.4,16.0,30.00,West,270,0.0,0.0,70,0.00,,,0.00,WUHU216HW,2013-03-02 11:42:00,
2013-03-02 06:47:00,24.2,15.8,30.00,WNW,293,0.0,0.0,70,0.00,,,0.00,WUHU216HW,2013-03-02 11:47:00,
2013-03-02 06:52:00,24.4,16.0,30.00,WNW,293,0.0,0.0,70,0.00,,,0.00,WUHU216HW,2013-03-02 11:52:00,
2013-03-02 06:57:00,24.2,15.8,30.00,WNW,293,0.0,0.0,70,0.00,,,0.00,WUHU216HW,2013-03-02 11:57:00,
2013-03-02 07:02:00,24.4,16.0,30.00,WNW,293,0.0,0.0,70,0.00,,,0.00,WUHU216HW,2013-03-02 12:02:00,
2013-03-02 07:07:00,24.4,16.0,30.00,WNW,293,0.0,0.0,70,0.00,,,0.00,WUHU216HW,2013-03-02 12:07:00,
2013-03-02 07:12:00,24.4,16.0,30.00,WNW,293,0.0,0.0,70,0.00,,,0.00,WUHU216HW,2013-03-02 12:12:00,
2013-03-02 07:17:00,24.4,16.3,30.00,WNW,293,0.0,0.0,71,0.00,,,0.00,WUHU216HW,2013-03-02 12:17:00,
2013-03-02 07:22:00,24.6,16.4,30.01,NW,315,0.0,0.0,71,0.00,,,0.00,WUHU216HW,2013-03-02 12:22:00,
2013-03-02 07:27:00,24.6,16.4,30.01,WNW,293,0.0,0.0,71,0.00,,,0.00,WUHU216HW,2013-03-02 12:27:00,
2013-03-02 07:32:00,24.4,16.4,30.01,WNW,293,0.0,0.0,71,0.00,,,0.00,WUHU216HW,2013-03-02 12:32:00,
2013-03-02 07:37:00,24.4,16.4,30.01,West,270,0.0,0.0,71,0.00,,,0.00,WUHU216HW,2013-03-02 12:37:00,
2013-03-02 07:42:00,24.6,16.4,30.01,WNW,293,0.0,0.0,71,0.00,,,0.00,WUHU216HW,2013-03-02 12:42:00,
2013-03-02 07:47:00,24.4,16.3,30.01,WNW,293,0.0,0.0,71,0.00,,,0.00,WUHU216HW,2013-03-02 12:47:00,
2013-03-02 07:52:00,24.4,16.3,30.01,West,270,0.0,0.0,71,0.00,,,0.00,WUHU216HW,2013-03-02 12:52:00,
2013-03-02 07:57:00,24.6,16.4,30.01,West,270,0.0,0.0,71,0.00,,,0.00,WUHU216HW,2013-03-02 12:57:00,
2013-03-02 08:02:00,24.6,16.4,30.01,West,270,0.0,0.0,71,0.00,,,0.00,WUHU216HW,2013-03-02 13:02:00,
2013-03-02 08:07:00,24.6,16.4,30.01,West,270,0.0,0.0,71,0.00,,,0.00,WUHU216HW,2013-03-02 13:07:00,
2013-03-02 08:12:00,24.6,16.4,30.01,West,270,0.0,0.0,71,0.00,,,0.00,WUHU216HW,2013-03-02 13:12:00,
2013-03-02 08:17:00,24.9,16.6,30.01,West,270,0.0,0.0,71,0.00,,,0.00,WUHU216HW,2013-03-02 13:17:00,
2013-03-02 08:22:00,24.9,17.1,30.01,West,270,0.0,0.0,72,0.00,,,0.00,WUHU216HW,2013-03-02 13:22:00,
2013-03-02 08:27:00,25.1,17.3,30.02,West,270,0.0,0.0,72,0.00,,,0.00,WUHU216HW,2013-03-02 13:27:00,
2013-03-02 08:32:00,25.3,17.5,30.01,WNW,293,0.0,0.0,72,0.00,,,0.00,WUHU216HW,2013-03-02 13:32:00,
2013-03-02 08:37:00,25.5,17.6,30.02,NNW,338,0.0,0.0,72,0.00,,,0.00,WUHU216HW,2013-03-02 13:37:00,
2013-03-02 08:42:00,26.0,18.5,30.01,WNW,293,0.0,0.0,73,0.00,,,0.00,WUHU216HW,2013-03-02 13:42:00,
2013-03-02 08:47:00,26.0,18.5,30.01,WNW,293,0.0,2.2,73,0.00,,,0.00,WUHU216HW,2013-03-02 13:47:00,
2013-03-02 08:52:00,26.2,18.6,30.01,West,270,0.0,2.2,73,0.00,,,0.00,WUHU216HW,2013-03-02 13:52:00,
2013-03-02 08:57:00,26.4,18.3,30.01,WNW,293,0.0,0.0,72,0.00,,,0.00,WUHU216HW,2013-03-02 13:57:00,
2013-03-02 09:02:00,26.6,18.7,30.01,West,270,0.0,0.0,72,0.00,,,0.00,WUHU216HW,2013-03-02 14:02:00,
2013-03-02 09:07:00,26.9,19.1,30.01,NW,315,0.0,0.0,72,0.00,,,0.00,WUHU216HW,2013-03-02 14:07:00,
2013-03-02 09:12:00,27.1,19.2,30.01,WNW,293,0.0,2.0,72,0.00,,,0.00,WUHU216HW,2013-03-02 14:12:00,
2013-03-02 09:17:00,27.3,19.4,30.01,NNW,338,0.0,2.0,72,0.00,,,0.00,WUHU216HW,2013-03-02 14:17:00,
2013-03-02 09:22:00,27.3,19.4,30.01,WNW,293,0.0,0.0,72,0.00,,,0.00,WUHU216HW,2013-03-02 14:22:00,
2013-03-02 09:27:00,27.5,19.6,30.01,West,270,0.0,0.0,72,0.00,,,0.00,WUHU216HW,2013-03-02 14:27:00,
2013-03-02 09:32:00,27.6,19.5,30.01,WNW,293,0.0,0.0,71,0.00,,,0.00,WUHU216HW,2013-03-02 14:32:00,
2013-03-02 09:37:00,27.8,19.7,30.01,West,270,0.0,1.5,71,0.00,,,0.00,WUHU216HW,2013-03-02 14:37:00,
2013-03-02 09:42:00,27.8,19.4,30.01,WNW,293,0.0,1.5,70,0.00,,,0.00,WUHU216HW,2013-03-02 14:42:00,
2013-03-02 09:47:00,28.0,19.5,30.01,WNW,293,0.0,0.0,70,0.00,,,0.00,WUHU216HW,2013-03-02 14:47:00,
2013-03-02 09:52:00,28.2,19.7,30.01,WNW,293,0.0,0.0,70,0.00,,,0.00,WUHU216HW,2013-03-02 14:52:00,
2013-03-02 09:57:00,28.5,20.1,30.01,NW,315,0.0,0.0,70,0.00,,,0.00,WUHU216HW,2013-03-02 14:57:00,
2013-03-02 10:02:00,28.5,19.7,30.01,West,270,1.3,2.6,69,0.00,,,0.00,WUHU216HW,2013-03-02 15:02:00,
2013-03-02 10:07:00,28.5,19.3,30.01,WNW,293,0.0,2.6,68,0.00,,,0.00,WUHU216HW,2013-03-02 15:07:00,
2013-03-02 10:12:00,28.9,19.7,30.01,NNW,338,0.0,0.0,68,0.00,,,0.00,WUHU216HW,2013-03-02 15:12:00,
2013-03-02 10:17:00,29.3,20.0,30.01,WNW,293,0.0,2.4,68,0.00,,,0.00,WUHU216HW,2013-03-02 15:17:00,
2013-03-02 10:22:00,29.4,20.1,30.01,WNW,293,0.0,2.4,68,0.00,,,0.00,WUHU216HW,2013-03-02 15:22:00,
2013-03-02 10:27:00,29.3,19.6,30.01,West,270,0.0,0.0,67,0.00,,,0.00,WUHU216HW,2013-03-02 15:27:00,
2013-03-02 10:32:00,29.1,19.2,30.01,WNW,293,0.0,3.1,66,0.00,,,0.00,WUHU216HW,2013-03-02 15:32:00,
2013-03-02 10:37:00,29.3,19.3,30.01,WSW,248,0.0,3.1,66,0.00,,,0.00,WUHU216HW,2013-03-02 15:37:00,
2013-03-02 10:42:00,29.4,19.1,30.01,WNW,293,0.0,1.7,65,0.00,,,0.00,WUHU216HW,2013-03-02 15:42:00,
2013-03-02 10:47:00,29.6,19.2,30.01,WNW,293,0.0,1.3,65,0.00,,,0.00,WUHU216HW,2013-03-02 15:47:00,
2013-03-02 10:52:00,29.6,19.2,30.01,NW,315,0.0,1.3,65,0.00,,,0.00,WUHU216HW,2013-03-02 15:52:00,
2013-03-02 10:57:00,29.6,19.2,30.01,NW,315,0.0,0.0,65,0.00,,,0.00,WUHU216HW,2013-03-02 15:57:00,
2013-03-02 11:02:00,29.6,18.9,30.01,WNW,293,0.0,0.0,64,0.00,,,0.00,WUHU216HW,2013-03-02 16:02:00,
2013-03-02 11:07:00,29.4,18.7,30.01,West,270,0.0,0.0,64,0.00,,,0.00,WUHU216HW,2013-03-02 16:07:00,
2013-03-02 11:12:00,29.4,18.7,30.01,NW,315,0.0,2.4,64,0.00,,,0.00,WUHU216HW,2013-03-02 16:12:00,
2013-03-02 11:17:00,29.4,18.7,30.01,NW,315,0.0,2.4,64,0.00,,,0.00,WUHU216HW,2013-03-02 16:17:00,
2013-03-02 11:22:00,29.8,19.0,30.00,WNW,293,0.0,2.4,64,0.00,,,0.00,WUHU216HW,2013-03-02 16:22:00,
2013-03-02 11:27:00,29.8,18.7,30.01,NNW,338,0.0,2.4,63,0.00,,,0.00,WUHU216HW,2013-03-02 16:27:00,
2013-03-02 11:32:00,29.8,18.7,30.01,WNW,293,0.0,2.0,63,0.00,,,0.00,WUHU216HW,2013-03-02 16:32:00,
2013-03-02 11:37:00,29.6,18.5,30.01,WNW,293,0.0,1.7,63,0.00,,,0.00,WUHU216HW,2013-03-02 16:37:00,
2013-03-02 11:42:00,28.7,17.9,30.02,West,270,0.0,1.7,63,0.00,,,0.00,WUHU216HW,2013-03-02 16:42:00,
2013-03-02 11:47:00,28.5,17.5,30.01,West,270,0.0,1.7,63,0.00,,,0.00,WUHU216HW,2013-03-02 16:47:00,
2013-03-02 11:52:00,28.2,17.6,30.01,WNW,293,0.0,0.8,64,0.00,,,0.00,WUHU216HW,2013-03-02 16:52:00,
2013-03-02 11:57:00,28.5,17.9,30.01,WSW,248,0.0,0.8,64,0.00,,,0.00,WUHU216HW,2013-03-02 16:57:00,
2013-03-02 12:02:00,28.7,18.4,30.00,West,270,0.0,1.7,65,0.00,,,0.00,WUHU216HW,2013-03-02 17:02:00,
2013-03-02 12:07:00,29.3,18.9,30.00,West,270,0.0,1.7,65,0.00,,,0.00,WUHU216HW,2013-03-02 17:07:00,
2013-03-02 12:12:00,29.3,18.9,30.01,WSW,248,0.0,1.5,65,0.00,,,0.00,WUHU216HW,2013-03-02 17:12:00,
2013-03-02 12:17:00,28.7,18.4,30.01,West,270,0.0,4.9,64,0.00,,,0.00,WUHU216HW,2013-03-02 17:17:00,
2013-03-02 12:22:00,28.2,17.6,30.01,WSW,248,0.0,4.9,64,0.00,,,0.00,WUHU216HW,2013-03-02 17:22:00,
2013-03-02 12:27:00,28.2,17.9,30.01,West,270,0.0,2.6,65,0.00,,,0.00,WUHU216HW,2013-03-02 17:27:00,
2013-03-02 12:32:00,29.1,19.1,30.01,NW,315,0.6,0.6,66,0.00,,,0.00,WUHU216HW,2013-03-02 17:32:00,
2013-03-02 12:37:00,29.4,19.8,30.00,SW,225,0.0,1.5,67,0.00,,,0.00,WUHU216HW,2013-03-02 17:37:00,
2013-03-02 12:42:00,29.4,19.8,30.00,WSW,248,0.0,1.5,67,0.00,,,0.00,WUHU216HW,2013-03-02 17:42:00,
2013-03-02 12:47:00,29.6,19.6,30.00,SW,225,0.0,0.0,66,0.00,,,0.00,WUHU216HW,2013-03-02 17:47:00,
2013-03-02 12:52:00,30.3,20.6,29.99,SW,225,0.0,2.2,67,0.00,,,0.00,WUHU216HW,2013-03-02 17:52:00,
2013-03-02 12:57:00,30.3,19.9,29.99,WNW,293,0.0,2.6,65,0.00,,,0.00,WUHU216HW,2013-03-02 17:57:00,
2013-03-02 13:02:00,30.3,19.5,29.99,NW,315,1.3,2.6,65,0.00,,,0.00,WUHU216HW,2013-03-02 18:02:00,
2013-03-02 13:07:00,30.5,19.7,29.99,NNW,338,0.0,2.4,64,0.00,,,0.00,WUHU216HW,2013-03-02 18:07:00,
2013-03-02 13:12:00,30.3,19.2,29.99,WSW,248,4.9,4.9,63,0.00,,,0.00,WUHU216HW,2013-03-02 18:12:00,
2013-03-02 13:17:00,29.6,18.1,29.99,WSW,248,2.4,4.9,62,0.00,,,0.00,WUHU216HW,2013-03-02 18:17:00,
2013-03-02 13:22:00,29.3,17.5,29.99,West,270,0.0,4.4,61,0.00,,,0.00,WUHU216HW,2013-03-02 18:22:00,
2013-03-02 13:27:00,29.1,17.7,29.99,SW,225,0.0,4.4,62,0.00,,,0.00,WUHU216HW,2013-03-02 18:27:00,
2013-03-02 13:32:00,29.1,17.7,29.99,WNW,293,1.5,3.5,62,0.00,,,0.00,WUHU216HW,2013-03-02 18:32:00,
2013-03-02 13:37:00,28.9,17.9,29.99,SW,225,1.7,3.5,63,0.00,,,0.00,WUHU216HW,2013-03-02 18:37:00,
2013-03-02 13:42:00,28.9,17.9,29.99,West,270,0.0,7.6,63,0.00,,,0.00,WUHU216HW,2013-03-02 18:42:00,
2013-03-02 13:47:00,28.7,17.7,29.99,West,270,0.0,7.6,63,0.00,,,0.00,WUHU216HW,2013-03-02 18:47:00,
2013-03-02 13:52:00,28.7,17.7,29.99,West,270,0.0,3.8,63,0.00,,,0.00,WUHU216HW,2013-03-02 18:52:00,
2013-03-02 13:57:00,28.5,17.5,29.99,West,270,0.0,3.8,63,0.00,,,0.00,WUHU216HW,2013-03-02 18:57:00,
2013-03-02 14:02:00,28.5,17.5,29.99,WSW,248,2.4,2.4,63,0.00,,,0.00,WUHU216HW,2013-03-02 19:02:00,
2013-03-02 14:07:00,28.2,17.2,29.99,WNW,293,0.0,2.4,63,0.00,,,0.00,WUHU216HW,2013-03-02 19:07:00,
2013-03-02 14:12:00,28.2,17.2,29.98,West,270,0.0,1.7,63,0.00,,,0.00,WUHU216HW,2013-03-02 19:12:00,
2013-03-02 14:17:00,28.2,17.6,29.98,WNW,293,0.0,1.7,64,0.00,,,0.00,WUHU216HW,2013-03-02 19:17:00,
2013-03-02 14:22:00,28.4,17.7,29.99,West,270,0.0,0.0,64,0.00,,,0.00,WUHU216HW,2013-03-02 19:22:00,
2013-03-02 14:27:00,28.5,17.9,29.98,WSW,248,0.0,0.0,64,0.00,,,0.00,WUHU216HW,2013-03-02 19:27:00,
2013-03-02 14:32:00,28.5,17.9,29.98,SW,225,2.2,4.0,64,0.00,,,0.00,WUHU216HW,2013-03-02 19:32:00,
2013-03-02 14:37:00,28.7,18.1,29.98,WNW,293,0.0,4.0,64,0.00,,,0.00,WUHU216HW,2013-03-02 19:37:00,
2013-03-02 14:42:00,29.1,18.7,29.98,WNW,293,0.0,0.0,65,0.00,,,0.00,WUHU216HW,2013-03-02 19:42:00,
2013-03-02 14:47:00,29.3,18.9,29.98,North,0,0.0,0.0,65,0.00,,,0.00,WUHU216HW,2013-03-02 19:47:00,
2013-03-02 14:52:00,29.1,18.4,29.98,NNW,338,0.0,0.0,64,0.00,,,0.00,WUHU216HW,2013-03-02 19:52:00,
2013-03-02 14:57:00,28.7,18.1,29.98,NW,315,0.0,4.6,64,0.00,,,0.00,WUHU216HW,2013-03-02 19:57:00,
2013-03-02 15:02:00,28.5,17.9,29.98,WNW,293,0.0,4.6,64,0.00,,,0.00,WUHU216HW,2013-03-02 20:02:00,
2013-03-02 15:07:00,28.7,18.4,29.98,WNW,293,1.7,1.7,65,0.00,,,0.00,WUHU216HW,2013-03-02 20:07:00,
2013-03-02 15:12:00,29.1,18.7,29.98,WNW,293,0.0,1.7,65,0.00,,,0.00,WUHU216HW,2013-03-02 20:12:00,
2013-03-02 15:17:00,29.3,19.3,29.98,NNW,338,0.0,0.0,66,0.00,,,0.00,WUHU216HW,2013-03-02 20:17:00,
2013-03-02 15:22:00,29.4,19.4,29.98,WNW,293,0.0,0.0,66,0.00,,,0.00,WUHU216HW,2013-03-02 20:22:00,
2013-03-02 15:27:00,29.8,19.7,29.98,SW,225,0.0,2.2,66,0.00,,,0.00,WUHU216HW,2013-03-02 20:27:00,
2013-03-02 15:32:00,30.0,19.9,29.98,NNW,338,1.1,2.2,66,0.00,,,0.00,WUHU216HW,2013-03-02 20:32:00,
2013-03-02 15:37:00,30.3,19.9,29.97,NW,315,0.0,1.1,65,0.00,,,0.00,WUHU216HW,2013-03-02 20:37:00,
2013-03-02 15:42:00,30.2,19.7,29.97,West,270,0.0,0.0,65,0.00,,,0.00,WUHU216HW,2013-03-02 20:42:00,
2013-03-02 15:47:00,30.0,19.2,29.98,North,0,0.6,1.5,64,0.00,,,0.00,WUHU216HW,2013-03-02 20:47:00,
2013-03-02 15:52:00,30.2,19.4,29.98,WNW,293,3.3,3.3,64,0.00,,,0.00,WUHU216HW,2013-03-02 20:52:00,
2013-03-02 15:57:00,30.3,19.2,29.98,WSW,248,0.0,3.3,63,0.00,,,0.00,WUHU216HW,2013-03-02 20:57:00,
2013-03-02 16:02:00,30.2,18.6,29.98,West,270,0.0,2.2,62,0.00,,,0.00,WUHU216HW,2013-03-02 21:02:00,
2013-03-02 16:07:00,29.8,17.9,29.98,West,270,0.0,0.0,61,0.00,,,0.00,WUHU216HW,2013-03-02 21:07:00,
2013-03-02 16:12:00,29.6,17.8,29.98,WSW,248,1.7,2.6,61,0.00,,,0.00,WUHU216HW,2013-03-02 21:12:00,
2013-03-02 16:17:00,29.4,17.6,29.98,West,270,0.0,2.6,61,0.00,,,0.00,WUHU216HW,2013-03-02 21:17:00,
2013-03-02 16:22:00,29.1,17.3,29.98,West,270,0.0,2.6,61,0.00,,,0.00,WUHU216HW,2013-03-02 21:22:00,
2013-03-02 16:27:00,28.9,17.1,29.99,WSW,248,2.0,2.6,61,0.00,,,0.00,WUHU216HW,2013-03-02 21:27:00,
2013-03-02 16:32:00,28.7,17.3,29.98,SW,225,0.6,2.4,62,0.00,,,0.00,WUHU216HW,2013-03-02 21:32:00,
2013-03-02 16:37:00,28.5,17.2,29.99,SSW,203,0.0,1.3,62,0.00,,,0.00,WUHU216HW,2013-03-02 21:37:00,
2013-03-02 16:42:00,28.2,16.8,29.99,WNW,293,0.0,1.3,62,0.00,,,0.00,WUHU216HW,2013-03-02 21:42:00,
2013-03-02 16:47:00,28.0,16.7,29.99,NW,315,2.4,2.4,62,0.00,,,0.00,WUHU216HW,2013-03-02 21:47:00,
2013-03-02 16:52:00,28.0,16.7,29.99,West,270,0.0,2.4,62,0.00,,,0.00,WUHU216HW,2013-03-02 21:52:00,
2013-03-02 16:57:00,27.8,16.5,29.99,West,270,0.0,3.5,62,0.00,,,0.00,WUHU216HW,2013-03-02 21:57:00,
2013-03-02 17:02:00,27.8,16.5,29.99,WSW,248,2.0,3.5,62,0.00,,,0.00,WUHU216HW,2013-03-02 22:02:00,
2013-03-02 17:07:00,27.8,16.5,29.99,NW,315,0.0,3.5,62,0.00,,,0.00,WUHU216HW,2013-03-02 22:07:00,
2013-03-02 17:12:00,27.8,16.3,29.99,NW,315,0.0,3.8,62,0.00,,,0.00,WUHU216HW,2013-03-02 22:12:00,
2013-03-02 17:17:00,27.8,16.5,29.99,WSW,248,0.0,3.8,62,0.00,,,0.00,WUHU216HW,2013-03-02 22:17:00,
2013-03-02 17:22:00,27.8,16.8,29.99,WSW,248,0.0,0.0,63,0.00,,,0.00,WUHU216HW,2013-03-02 22:22:00,
2013-03-02 17:27:00,27.6,16.7,30.00,WSW,248,0.0,0.0,63,0.00,,,0.00,WUHU216HW,2013-03-02 22:27:00,
2013-03-02 17:32:00,27.6,16.7,30.00,West,270,0.0,0.0,63,0.00,,,0.00,WUHU216HW,2013-03-02 22:32:00,
2013-03-02 17:37:00,27.5,16.5,30.00,West,270,0.0,1.5,63,0.00,,,0.00,WUHU216HW,2013-03-02 22:37:00,
2013-03-02 17:42:00,27.5,16.3,30.00,West,270,0.0,2.6,63,0.00,,,0.00,WUHU216HW,2013-03-02 22:42:00,
2013-03-02 17:47:00,27.3,16.3,30.00,WSW,248,0.0,2.6,63,0.00,,,0.00,WUHU216HW,2013-03-02 22:47:00,
2013-03-02 17:52:00,27.1,15.9,30.00,West,270,0.0,2.6,63,0.00,,,0.00,WUHU216HW,2013-03-02 22:52:00,
2013-03-02 17:57:00,26.9,16.3,30.01,WNW,293,0.0,2.4,64,0.00,,,0.00,WUHU216HW,2013-03-02 22:57:00,
2013-03-02 18:02:00,26.7,16.1,30.01,West,270,0.0,0.0,64,0.00,,,0.00,WUHU216HW,2013-03-02 23:02:00,
2013-03-02 18:07:00,26.9,16.7,30.01,WNW,293,0.0,0.0,65,0.00,,,0.00,WUHU216HW,2013-03-02 23:07:00,
2013-03-02 18:12:00,26.7,16.5,30.01,West,270,0.0,0.0,65,0.00,,,0.00,WUHU216HW,2013-03-02 23:12:00,
2013-03-02 18:17:00,26.6,16.3,30.02,West,270,0.0,0.0,65,0.00,,,0.00,WUHU216HW,2013-03-02 23:17:00,
2013-03-02 18:22:00,26.4,16.5,30.02,WNW,293,2.9,2.9,66,0.00,,,0.00,WUHU216HW,2013-03-02 23:22:00,
2013-03-02 18:27:00,26.2,16.3,30.02,WSW,248,0.0,2.9,66,0.00,,,0.00,WUHU216HW,2013-03-02 23:27:00,
2013-03-02 18:32:00,26.0,16.1,30.02,West,270,0.0,1.1,66,0.00,,,0.00,WUHU216HW,2013-03-02 23:32:00,
2013-03-02 18:37:00,26.0,16.1,30.02,NW,315,0.0,1.1,66,0.00,,,0.00,WUHU216HW,2013-03-02 23:37:00,
2013-03-02 18:42:00,26.0,16.5,30.02,West,270,0.0,0.0,67,0.00,,,0.00,WUHU216HW,2013-03-02 23:42:00,
2013-03-02 18:47:00,25.8,16.3,30.02,WNW,293,0.0,0.0,67,0.00,,,0.00,WUHU216HW,2013-03-02 23:47:00,
2013-03-02 18:52:00,25.8,16.3,30.02,West,270,0.0,0.0,67,0.00,,,0.00,WUHU216HW,2013-03-02 23:52:00,
2013-03-02 18:57:00,25.7,16.5,30.02,WNW,293,0.0,3.8,68,0.00,,,0.00,WUHU216HW,2013-03-02 23:57:00,
2013-03-02 19:02:00,25.8,16.7,30.02,WNW,293,0.0,3.8,68,0.00,,,0.00,WUHU216HW,2013-03-03 00:02:00,
2013-03-02 19:07:00,25.8,16.7,30.02,WNW,293,0.0,1.7,68,0.00,,,0.00,WUHU216HW,2013-03-03 00:07:00,
2013-03-02 19:12:00,25.7,16.5,30.02,WSW,248,0.0,1.7,68,0.00,,,0.00,WUHU216HW,2013-03-03 00:12:00,
2013-03-02 19:17:00,25.7,16.8,30.02,WNW,293,0.0,0.0,69,0.00,,,0.00,WUHU216HW,2013-03-03 00:17:00,
2013-03-02 19:22:00,25.5,16.7,30.02,West,270,0.0,0.0,69,0.00,,,0.00,WUHU216HW,2013-03-03 00:22:00,
2013-03-02 19:27:00,25.5,16.7,30.03,WNW,293,0.0,0.0,69,0.00,,,0.00,WUHU216HW,2013-03-03 00:27:00,
2013-03-02 19:32:00,25.3,16.5,30.02,WSW,248,1.1,2.6,69,0.00,,,0.00,WUHU216HW,2013-03-03 00:32:00,
2013-03-02 19:37:00,25.3,16.5,30.02,West,270,0.0,2.6,69,0.00,,,0.00,WUHU216HW,2013-03-03 00:37:00,
2013-03-02 19:42:00,25.3,16.5,30.03,West,270,0.6,1.5,69,0.00,,,0.00,WUHU216HW,2013-03-03 00:42:00,
2013-03-02 19:47:00,25.1,16.3,30.03,WSW,248,1.7,1.7,69,0.00,,,0.00,WUHU216HW,2013-03-03 00:47:00,
2013-03-02 19:52:00,24.9,16.7,30.03,West,270,0.0,1.7,70,0.00,,,0.00,WUHU216HW,2013-03-03 00:52:00,
2013-03-02 19:57:00,25.1,16.7,30.03,WNW,293,0.0,2.6,70,0.00,,,0.00,WUHU216HW,2013-03-03 00:57:00,
2013-03-02 20:02:00,25.1,16.7,30.03,West,270,0.0,2.6,70,0.00,,,0.00,WUHU216HW,2013-03-03 01:02:00,
2013-03-02 20:07:00,25.1,16.7,30.03,West,270,0.0,0.0,70,0.00,,,0.00,WUHU216HW,2013-03-03 01:07:00,
2013-03-02 20:12:00,25.3,16.8,30.03,WNW,293,0.0,0.0,70,0.00,,,0.00,WUHU216HW,2013-03-03 01:12:00,
2013-03-02 20:17:00,25.1,16.7,30.03,WNW,293,0.0,0.0,70,0.00,,,0.00,WUHU216HW,2013-03-03 01:17:00,
2013-03-02 20:22:00,25.3,16.8,30.03,NW,315,0.0,3.3,70,0.00,,,0.00,WUHU216HW,2013-03-03 01:22:00,
2013-03-02 20:27:00,25.3,16.8,30.03,West,270,0.0,3.3,70,0.00,,,0.00,WUHU216HW,2013-03-03 01:27:00,
2013-03-02 20:32:00,25.3,16.8,30.03,West,270,0.0,0.0,70,0.00,,,0.00,WUHU216HW,2013-03-03 01:32:00,
2013-03-02 20:37:00,25.1,16.7,30.03,WNW,293,5.1,5.1,70,0.00,,,0.00,WUHU216HW,2013-03-03 01:37:00,
2013-03-02 20:42:00,25.3,16.8,30.03,West,270,0.0,5.1,70,0.00,,,0.00,WUHU216HW,2013-03-03 01:42:00,
2013-03-02 20:47:00,25.1,16.7,30.03,West,270,0.0,0.0,70,0.00,,,0.00,WUHU216HW,2013-03-03 01:47:00,
2013-03-02 20:52:00,25.1,16.7,30.03,West,270,0.0,0.0,70,0.00,,,0.00,WUHU216HW,2013-03-03 01:52:00,
2013-03-02 20:57:00,25.1,16.7,30.03,NW,315,0.0,2.0,70,0.00,,,0.00,WUHU216HW,2013-03-03 01:57:00,
2013-03-02 21:02:00,25.1,16.7,30.04,WNW,293,0.0,2.4,70,0.00,,,0.00,WUHU216HW,2013-03-03 02:02:00,
2013-03-02 21:07:00,25.1,16.7,30.03,West,270,0.0,2.4,70,0.00,,,0.00,WUHU216HW,2013-03-03 02:07:00,
2013-03-02 21:12:00,25.1,16.7,30.04,WNW,293,0.0,0.0,70,0.00,,,0.00,WUHU216HW,2013-03-03 02:12:00,
2013-03-02 21:17:00,25.1,16.7,30.03,WNW,293,0.0,0.0,70,0.00,,,0.00,WUHU216HW,2013-03-03 02:17:00,
2013-03-02 21:22:00,24.9,16.5,30.03,West,270,0.0,0.0,70,0.00,,,0.00,WUHU216HW,2013-03-03 02:22:00,
2013-03-02 21:27:00,24.9,16.5,30.04,WSW,248,0.0,0.0,70,0.00,,,0.00,WUHU216HW,2013-03-03 02:27:00,
2013-03-02 21:32:00,24.9,16.5,30.04,WNW,293,0.0,0.0,70,0.00,,,0.00,WUHU216HW,2013-03-03 02:32:00,
2013-03-02 21:37:00,24.9,16.5,30.04,WSW,248,0.0,0.0,70,0.00,,,0.00,WUHU216HW,2013-03-03 02:37:00,
2013-03-02 21:42:00,24.9,16.5,30.03,WNW,293,0.0,0.0,70,0.00,,,0.00,WUHU216HW,2013-03-03 02:42:00,
2013-03-02 21:47:00,24.9,16.8,30.04,West,270,0.0,3.1,71,0.00,,,0.00,WUHU216HW,2013-03-03 02:47:00,
2013-03-02 21:52:00,24.8,16.8,30.03,West,270,0.0,3.1,71,0.00,,,0.00,WUHU216HW,2013-03-03 02:52:00,
2013-03-02 21:57:00,24.9,16.8,30.03,WNW,293,0.0,0.8,71,0.00,,,0.00,WUHU216HW,2013-03-03 02:57:00,
2013-03-02 22:02:00,24.8,16.6,30.03,WSW,248,0.0,0.8,71,0.00,,,0.00,WUHU216HW,2013-03-03 03:02:00,
2013-03-02 22:07:00,24.8,16.6,30.03,WNW,293,0.0,3.1,71,0.00,,,0.00,WUHU216HW,2013-03-03 03:07:00,
2013-03-02 22:12:00,24.6,16.6,30.03,West,270,0.0,3.1,71,0.00,,,0.00,WUHU216HW,2013-03-03 03:12:00,
2013-03-02 22:17:00,24.4,16.3,30.03,West,270,0.0,0.8,71,0.00,,,0.00,WUHU216HW,2013-03-03 03:17:00,
2013-03-02 22:22:00,24.4,16.6,30.03,WNW,293,0.0,0.0,72,0.00,,,0.00,WUHU216HW,2013-03-03 03:22:00,
2013-03-02 22:27:00,24.4,16.6,30.03,WNW,293,0.0,0.0,72,0.00,,,0.00,WUHU216HW,2013-03-03 03:27:00,
2013-03-02 22:32:00,24.4,16.6,30.03,West,270,0.0,0.0,72,0.00,,,0.00,WUHU216HW,2013-03-03 03:32:00,
2013-03-02 22:37:00,24.4,16.6,30.02,WNW,293,0.0,0.0,72,0.00,,,0.00,WUHU216HW,2013-03-03 03:37:00,
2013-03-02 22:42:00,24.2,16.4,30.03,West,270,0.0,0.0,72,0.00,,,0.00,WUHU216HW,2013-03-03 03:42:00,
2013-03-02 22:47:00,24.4,16.6,30.02,WNW,293,0.0,2.6,72,0.00,,,0.00,WUHU216HW,2013-03-03 03:47:00,
2013-03-02 22:52:00,24.4,16.6,30.02,WNW,293,0.0,2.6,72,0.00,,,0.00,WUHU216HW,2013-03-03 03:52:00,
2013-03-02 22:57:00,24.4,16.6,30.02,WNW,293,0.0,0.0,72,0.00,,,0.00,WUHU216HW,2013-03-03 03:57:00,
2013-03-02 23:02:00,24.4,16.6,30.02,WNW,293,0.0,0.0,72,0.00,,,0.00,WUHU216HW,2013-03-03 04:02:00,
2013-03-02 23:07:00,24.4,16.6,30.02,West,270,0.0,0.0,72,0.00,,,0.00,WUHU216HW,2013-03-03 04:07:00,
2013-03-02 23:12:00,24.4,16.6,30.02,WNW,293,0.0,0.0,72,0.00,,,0.00,WUHU216HW,2013-03-03 04:12:00,
2013-03-02 23:17:00,24.4,16.6,30.02,WNW,293,0.0,2.0,72,0.00,,,0.00,WUHU216HW,2013-03-03 04:17:00,
2013-03-02 23:22:00,24.2,16.4,30.02,WNW,293,0.0,2.0,72,0.00,,,0.00,WUHU216HW,2013-03-03 04:22:00,
2013-03-02 23:27:00,24.4,16.6,30.02,North,0,0.0,0.0,72,0.00,,,0.00,WUHU216HW,2013-03-03 04:27:00,
2013-03-02 23:32:00,24.2,16.4,30.02,West,270,0.0,0.0,72,0.00,,,0.00,WUHU216HW,2013-03-03 04:32:00,
2013-03-02 23:37:00,24.2,16.4,30.02,West,270,0.0,0.6,72,0.00,,,0.00,WUHU216HW,2013-03-03 04:37:00,
2013-03-02 23:42:00,24.2,16.4,30.02,West,270,0.0,0.6,72,0.00,,,0.00,WUHU216HW,2013-03-03 04:42:00,
2013-03-02 23:47:00,24.2,16.4,30.02,West,270,0.0,0.0,72,0.00,,,0.00,WUHU216HW,2013-03-03 04:47:00,
2013-03-02 23:52:00,24.2,16.4,30.02,WNW,293,0.0,0.0,72,0.00,,,0.00,WUHU216HW,2013-03-03 04:52:00,
2013-03-02 23:57:00,24.2,16.4,30.02,WNW,293,0.0,0.0,72,0.00,,,0.00,WUHU216HW,2013-03-03 04:57:00,